Location: Pl�tzky
(52.0521°N, 11.8020°E)
Time: 11:20:48
(UTC+00:00)

USA 229 - Pass Details

Date: 24 February 2020
Orbit: 986 x 1226 km, 63.4° (Epoch: 26 March)

Event Time Altitude Azimuth Distance (km) Brightness Sun altitude
Rises 19:32:35 0° 260° (W) 3,760 7.5 -26.6°
Reaches altitude 10° 19:35:18 10° 268° (W) 2,837 6.8 -27.0°
Maximum altitude 19:41:37 42° 338° (NNW) 1,504 4.7 -27.9°
Enters shadow 19:46:02 20° 38° (NE) 2,298 5.3 -28.5°
